Marion, OH

4:10 AM EDT on August 19, 2017 (GMT -0400)
Marion Municipal

Weather History for KMNN - November, 2012

Change the Weather History Date:

Friday, November 9, 2012

  Actual Average (KDLZ) Record (KDLZ)
Temperature  
Mean Temperature 42 °F -  
Max Temperature 55 °F 52 °F 72 °F (1975)
Min Temperature 28 °F 32 °F 9 °F (1991)
Degree Days  
Heating Degree Days 24    
Moisture  
Dew Point 34 °F    
Average Humidity 79    
Maximum Humidity 96    
Minimum Humidity 51    
Precipitation  
Precipitation 0.43 in - - ()
Sea Level Pressure  
Sea Level Pressure 30.20 in    
Wind  
Wind Speed 5 mph (South)    
Max Wind Speed 13 mph    
Max Gust Speed -    
Visibility 5 miles    
Events Rain    
Averages and records for this station are not official NWS values.
T = Trace of Precipitation, MM = Missing Value Source: NWS Daily Summary

Daily Weather History Graph

Daily Weather History Graph

Search for Another Location

Airport or City:

Trip Planner

Search our weather history database for the weather conditions in past years. The results will help you decide how hot, cold, wet, or windy it might be!

Date:

Astronomy

Nov. 09, 2012 Rise Set
Actual Time 7:12 AM EST 5:19 PM EST
Civil Twilight 6:43 AM EST 5:48 PM EST
Nautical Twilight 6:10 AM EST 6:21 PM EST
Astronomical Twilight 5:38 AM EST 6:53 PM EST
Moon 2:08 AM EST (11/9) 2:33 PM EST (11/9)
Length of Visible Light 11h 04m
Length of Day
10h 07m
Waning Crescent, 23% of the Moon is Illuminated
Nov 9
Waning Crescent
Nov 13
New
Nov 20
First Quarter
Nov 28
Full
Dec 6
Last Quarter

Hourly Weather History & Observations

Time (EST) Temp. Windchill Dew Point Humidity Pressure Visibility Wind Dir Wind Speed Gust Speed Precip Events Conditions
12:53 AM 30.0 °F 26.5 °F 28.9 °F 96% 30.20 in 4.0 mi South 3.5 mph - N/A   Clear
1:53 AM 28.0 °F - 27.0 °F 96% 30.20 in 3.0 mi Calm Calm - N/A   Clear
2:53 AM 28.0 °F - 26.1 °F 92% 30.21 in 3.0 mi Calm Calm - N/A   Clear
3:37 AM 28.4 °F - 26.6 °F 93% 30.18 in 2.5 mi Calm Calm - N/A   Clear
3:53 AM 28.0 °F - 25.0 °F 88% 30.22 in 3.0 mi Calm Calm - N/A   Clear
4:53 AM 28.0 °F 24.2 °F 27.0 °F 96% 30.23 in 3.0 mi SSE 3.5 mph - N/A   Clear
5:53 AM 28.0 °F 24.2 °F 26.1 °F 92% 30.25 in 3.0 mi South 3.5 mph - N/A   Clear
6:48 AM 28.4 °F 23.3 °F 26.6 °F 93% 30.22 in 2.5 mi South 4.6 mph - N/A   Clear
6:53 AM 28.0 °F 24.2 °F 26.1 °F 92% 30.26 in 2.5 mi South 3.5 mph - N/A   Clear
7:18 AM 28.4 °F 24.6 °F 26.6 °F 93% 30.22 in 1.5 mi South 3.5 mph - N/A   Clear
7:53 AM 28.9 °F 22.8 °F 28.0 °F 96% 30.27 in 1.8 mi South 5.8 mph - N/A   Clear
8:03 AM 30.2 °F 24.3 °F 28.4 °F 93% 30.23 in 2.0 mi South 5.8 mph - N/A   Clear
8:53 AM 34.0 °F 29.8 °F 32.0 °F 92% 30.28 in 2.5 mi South 4.6 mph - N/A   Clear
9:22 AM 37.4 °F 32.1 °F 33.8 °F 87% 30.24 in 3.0 mi South 6.9 mph - N/A   Clear
9:53 AM 39.9 °F 35.1 °F 36.0 °F 86% 30.27 in 4.0 mi South 6.9 mph - N/A   Clear
10:53 AM 46.9 °F - 37.0 °F 68% 30.26 in 5.0 mi SW 8.1 mph - N/A   Haze
11:53 AM 51.1 °F - 39.0 °F 63% 30.24 in 7.0 mi SSW 9.2 mph - N/A   Clear
12:53 PM 53.1 °F - 39.0 °F 59% 30.20 in 10.0 mi SW 11.5 mph - N/A   Clear
1:53 PM 54.0 °F - 37.9 °F 55% 30.19 in 8.0 mi SSW 12.7 mph - N/A   Clear
2:53 PM 55.9 °F - 37.9 °F 51% 30.17 in 10.0 mi South 10.4 mph - N/A   Clear
3:53 PM 55.0 °F - 37.0 °F 51% 30.16 in 10.0 mi South 10.4 mph - N/A   Clear
4:53 PM 52.0 °F - 37.0 °F 57% 30.16 in 10.0 mi South 8.1 mph - N/A   Clear
5:53 PM 48.0 °F - 36.0 °F 63% 30.17 in 10.0 mi South 4.6 mph - N/A   Clear
6:53 PM 48.9 °F - 37.0 °F 64% 30.17 in 10.0 mi South 9.2 mph - N/A   Mostly Cloudy
7:53 PM 50.0 °F - 36.0 °F 59% 30.16 in 10.0 mi SSE 10.4 mph - N/A   Mostly Cloudy
8:53 PM 48.9 °F - 36.0 °F 61% 30.15 in 10.0 mi South 11.5 mph - N/A   Overcast
9:53 PM 50.0 °F - 37.0 °F 61% 30.14 in 10.0 mi South 11.5 mph - N/A   Overcast
10:53 PM 48.0 °F - 39.9 °F 74% 30.15 in 5.0 mi SSW 9.2 mph - 0.03 in Rain Light Rain
11:12 PM 46.4 °F 43.5 °F 41.0 °F 81% 30.18 in 1.5 mi West 5.8 mph - 0.18 in Rain Heavy Rain
11:19 PM 46.4 °F - 42.8 °F 87% 30.16 in 0.8 mi Calm Calm - 0.31 in Rain Heavy Rain
11:26 PM 44.6 °F 42.2 °F 42.8 °F 93% 30.16 in 1.2 mi South 4.6 mph - 0.36 in Rain Heavy Rain
11:32 PM 44.6 °F 41.4 °F 42.8 °F 93% 30.16 in 3.0 mi South 5.8 mph - 0.36 in Rain Light Rain
11:53 PM 46.0 °F 43.1 °F 43.0 °F 89% 30.18 in 4.0 mi South 5.8 mph - 0.40 in Rain Rain